Total_Precipitation_Accumulation
0.00 0.00 0.00 0.00 0.00 0.00 0.00 0.00 0.00 0.00 0.00 0.00 0.00 0.00 0.00 0.00 0.00 0.00 0.00 0.00 0.00 0.00 0.00 0.00 0.00 0.00 0.00 0.02 0.02 0.01 0.01 0.02 0.00 0.00 0.01 0.01 0.01 0.01 0.01 0.02 0.02 0.01 0.02 0.02 0.01 0.01 0.01 0.01 0.01 0.01 0.01 0.02 0.03 0.02 0.02 0.02 0.03 0.03 0.05 0.10 0.16 0.18 0.26 0.26 0.39 0.14 0.05 0.01 0.01 0.01 0.01 0.02 0.10 0.15 0.22 0.23 0.26 0.30 0.17 0.44 0.41 0.45 0.15 0.21 0.29
0.00 0.00 0.00 0.00 0.00 0.00 0.00 0.00 0.00 0.00 0.00 0.00 0.00 0.00 0.00 0.00 0.00 0.00 0.00 0.00 0.00 0.00 0.02 0.03 0.04 0.01 0.00 0.00 0.00 0.01 0.02 0.02 0.03 0.01 0.01 0.01 0.02 0.01 0.02 0.02 0.01 0.01 0.01 0.01 0.00 0.01 0.00 0.01 0.01 0.01 0.01 0.03 0.04 0.03 0.03 0.05 0.09 0.08 0.12 0.11 0.22 0.32 0.32 0.57 0.21 0.21 0.07 0.02 0.02 0.03 0.02 0.02 0.02 0.02 0.20 0.06 0.07 0.36 0.36 0.14 0.24 0.40 0.31 0.27 0.29
0.00 0.00 0.01 0.00 0.01 0.01 0.03 0.00 0.00 0.00 0.00 0.00 0.00 0.00 0.00 0.00 0.00 0.00 0.00 0.00 0.02 0.02 0.01 0.00 0.01 0.00 0.02 0.00 0.01 0.01 0.01 0.07 0.05 0.01 0.02 0.01 0.01 0.02 0.02 0.03 0.02 0.01 0.02 0.01 0.01 0.00 0.01 0.01 0.01 0.01 0.01 0.03 0.03 0.04 0.02 0.04 0.05 0.08 0.06 0.07 0.11 0.08 0.13 0.21 0.29 0.21 0.10 0.06 0.01 0.03 0.02 0.02 0.02 0.02 0.01 0.03 0.08 0.06 0.12 0.17 0.33 0.15 0.20 0.14 0.18
0.00 0.00 0.01 0.02 0.03 0.05 0.05 0.03 0.00 0.00 0.00 0.01 0.03 0.06 0.01 0.01 0.02 0.02 0.03 0.04 0.03 0.03 0.00 0.00 0.02 0.06 0.00 0.01 0.03 0.01 0.02 0.06 0.03 0.04 0.01 0.01 0.03 0.03 0.03 0.03 0.02 0.02 0.03 0.01 0.00 0.00 0.01 0.01 0.01 0.01 0.01 0.02 0.04 0.03 0.06 0.08 0.07 0.05 0.08 0.06 0.11 0.06 0.08 0.11 0.22 0.32 0.21 0.17 0.03 0.02 0.02 0.02 0.02 0.01 0.01 0.01 0.01 0.02 0.06 0.14 0.22 0.36 0.34 0.18 0.09
0.00 0.01 0.02 0.05 0.07 0.05 0.22 0.11 0.02 0.00 0.03 0.03 0.01 0.01 0.00 0.01 0.02 0.03 0.04 0.08 0.03 0.01 0.00 0.02 0.01 0.01 0.02 0.02 0.04 0.02 0.03 0.02 0.01 0.02 0.02 0.02 0.01 0.03 0.02 0.04 0.02 0.03 0.01 0.00 0.00 0.01 0.02 0.02 0.01 0.00 0.00 0.02 0.02 0.04 0.12 0.17 0.23 0.17 0.16 0.16 0.23 0.10 0.17 0.28 0.42 0.36 0.22 0.23 0.09 0.04 0.02 0.04 0.03 0.02 0.02 0.05 0.03 0.03 0.04 0.13 0.05 0.09 0.17 0.14 0.07
0.00 0.01 0.02 0.10 0.24 0.60 0.35 0.10 0.01 0.09 0.07 0.04 0.03 0.02 0.02 0.02 0.03 0.04 0.03 0.02 0.02 0.02 0.02 0.01 0.01 0.03 0.02 0.04 0.04 0.03 0.02 0.08 0.08 0.07 0.04 0.03 0.01 0.02 0.01 0.03 0.03 0.03 0.01 0.01 0.00 0.01 0.02 0.02 0.00 0.01 0.01 0.03 0.03 0.04 0.19 0.32 0.18 0.10 0.21 0.14 0.13 0.22 0.29 0.22 0.16 0.41 0.26 0.14 0.24 0.19 0.08 0.09 0.08 0.08 0.04 0.07 0.09 0.11 0.09 0.17 0.11 0.11 0.13 0.17 0.08
0.01 0.02 0.04 0.05 0.60 1.18 0.37 0.12 0.06 0.13 0.12 0.09 0.06 0.02 0.02 0.08 0.08 0.05 0.04 0.03 0.03 0.02 0.02 0.02 0.02 0.02 0.01 0.03 0.02 0.03 0.04 0.12 0.20 0.10 0.07 0.07 0.04 0.03 0.01 0.02 0.04 0.03 0.01 0.00 0.01 0.01 0.02 0.01 0.01 0.01 0.01 0.03 0.06 0.07 0.11 0.17 0.14 0.14 0.11 0.19 0.09 0.11 0.11 0.08 0.18 0.41 0.25 0.20 0.23 0.15 0.12 0.06 0.13 0.09 0.07 0.19 0.04 0.06 0.13 0.20 0.58 0.25 0.16 0.10 0.17
0.01 0.01 0.05 0.11 0.81 1.08 0.71 0.41 0.20 0.07 0.07 0.07 0.03 0.11 0.07 0.12 0.07 0.09 0.07 0.07 0.04 0.02 0.02 0.03 0.03 0.01 0.01 0.01 0.00 0.01 0.03 0.12 0.12 0.12 0.09 0.10 0.05 0.03 0.02 0.02 0.02 0.04 0.01 0.01 0.01 0.02 0.01 0.01 0.01 0.02 0.05 0.09 0.13 0.12 0.09 0.31 0.38 0.32 0.31 0.32 0.33 0.37 0.40 0.28 0.25 0.38 0.42 0.20 0.23 0.13 0.12 0.13 0.09 0.12 0.06 0.12 0.16 0.07 0.12 0.14 0.15 0.19 0.16 0.11 0.15
0.00 0.08 0.10 0.42 0.99 0.84 0.54 0.84 0.45 0.42 0.20 0.16 0.08 0.10 0.19 0.17 0.14 0.10 0.08 0.05 0.05 0.06 0.07 0.07 0.05 0.03 0.01 0.00 0.01 0.07 0.12 0.14 0.07 0.10 0.06 0.05 0.03 0.02 0.03 0.02 0.04 0.02 0.02 0.01 0.01 0.01 0.01 0.01 0.02 0.08 0.09 0.09 0.15 0.47 0.18 0.30 0.26 0.17 0.10 0.22 0.24 0.47 0.23 0.27 0.30 0.29 0.48 0.49 0.26 0.17 0.24 0.18 0.12 0.15 0.13 0.16 0.16 0.12 0.10 0.12 0.11 0.13 0.13 0.11 0.23
0.09 0.13 0.53 1.11 1.17 0.32 0.41 0.69 0.61 0.62 0.51 0.91 0.66 0.39 0.40 0.55 0.41 0.15 0.11 0.12 0.10 0.08 0.06 0.04 0.01 0.01 0.00 0.00 0.01 0.03 0.01 0.04 0.04 0.01 0.01 0.03 0.03 0.02 0.03 0.03 0.02 0.02 0.02 0.01 0.01 0.01 0.01 0.01 0.03 0.09 0.15 0.21 0.20 0.08 0.06 0.15 0.20 0.10 0.09 0.13 0.12 0.17 0.13 0.20 0.14 0.14 0.20 0.21 0.16 0.21 0.23 0.14 0.10 0.09 0.11 0.14 0.14 0.11 0.15 0.24 0.18 0.10 0.09 0.16 0.17
0.58 0.74 0.54 0.92 0.63 0.54 0.76 0.44 0.32 0.59 0.44 0.78 1.19 0.75 0.90 1.40 0.85 0.16 0.11 0.10 0.07 0.05 0.08 0.02 0.02 0.01 0.01 0.00 0.00 0.01 0.01 0.11 0.01 0.03 0.01 0.00 0.01 0.00 0.02 0.01 0.02 0.02 0.02 0.01 0.03 0.01 0.01 0.08 0.16 0.09 0.10 0.13 0.40 0.08 0.09 0.08 0.05 0.03 0.02 0.03 0.06 0.19 0.16 0.11 0.09 0.13 0.12 0.15 0.12 0.14 0.13 0.12 0.06 0.07 0.10 0.10 0.13 0.26 0.26 0.26 0.32 0.23 0.24 0.20 0.27
0.28 0.48 0.43 0.56 0.79 0.90 0.66 0.61 0.23 0.49 0.97 0.68 0.95 1.65 1.50 0.91 0.46 0.22 0.16 0.14 0.09 0.08 0.10 0.07 0.03 0.02 0.01 0.01 0.01 0.01 0.07 0.03 0.02 0.01 0.00 0.00 0.01 0.01 0.02 0.05 0.04 0.12 0.05 0.04 0.07 0.07 0.12 0.18 0.16 0.12 0.20 0.50 0.64 0.59 0.20 0.02 0.02 0.02 0.02 0.03 0.05 0.05 0.08 0.18 0.15 0.10 0.10 0.15 0.17 0.12 0.15 0.14 0.10 0.12 0.11 0.18 0.45 0.32 0.39 0.35 0.25 0.23 0.16 0.24 0.19
0.02 0.14 0.47 0.64 0.62 0.42 0.49 0.56 0.62 0.59 0.77 0.90 0.96 0.77 0.83 1.44 0.88 0.67 0.21 0.24 0.22 0.08 0.06 0.02 0.01 0.02 0.02 0.03 0.01 0.03 0.06 0.03 0.02 0.01 0.01 0.00 0.00 0.03 0.00 0.03 0.08 0.07 0.11 0.07 0.06 0.03 0.06 0.04 0.06 0.09 0.08 0.69 0.28 0.17 0.31 0.23 0.05 0.02 0.03 0.09 0.04 0.01 0.01 0.01 0.04 0.09 0.17 0.25 0.17 0.15 0.14 0.17 0.23 0.15 0.40 0.32 0.34 0.25 0.16 0.17 0.17 0.22 0.21 0.21 0.17
0.82 0.45 0.50 0.41 0.15 0.32 0.42 0.75 0.65 0.61 0.79 1.02 1.12 0.65 0.87 0.90 0.93 0.62 0.54 0.25 0.06 0.05 0.01 0.00 0.00 0.01 0.03 0.03 0.03 0.03 0.05 0.03 0.01 0.00 0.01 0.00 0.00 0.00 0.03 0.01 0.02 0.04 0.01 0.05 0.04 0.23 0.17 0.14 0.24 0.12 0.28 0.84 0.91 0.33 0.33 0.22 0.41 0.25 0.22 0.07 0.04 0.02 0.01 0.03 0.06 0.43 0.43 0.59 0.37 0.25 0.24 1.12 0.49 0.23 0.21 0.15 0.27 0.23 0.22 0.14 0.33 0.26 0.17 0.18 0.09
0.56 0.41 0.39 0.67 0.74 0.37 0.38 0.68 0.51 0.77 0.95 1.33 0.85 0.74 0.79 0.58 0.55 0.44 0.14 0.09 0.01 0.02 0.00 0.00 0.00 0.03 0.19 0.04 0.02 0.04 0.01 0.00 0.02 0.00 0.01 0.00 0.00 0.01 0.07 0.02 0.04 0.04 0.05 0.02 0.52 0.12 0.17 0.40 0.39 0.53 0.59 0.40 0.19 0.09 0.19 0.21 0.59 0.29 0.16 0.02 0.02 0.01 0.08 0.03 0.51 1.85 2.03 0.58 0.64 0.32 0.25 0.66 0.60 0.24 0.33 0.21 0.18 0.36 0.52 0.15 0.36 0.36 0.41 0.45 0.22
0.96 1.36 1.37 0.88 0.75 0.52 0.42 0.27 0.73 1.14 1.51 0.97 0.67 0.91 0.46 0.19 0.10 0.11 0.05 0.01 0.01 0.00 0.01 0.01 0.01 0.04 0.05 0.03 0.01 0.01 0.01 0.00 0.01 0.01 0.00 0.00 0.00 0.04 0.04 0.43 0.47 0.04 0.04 0.34 0.28 0.14 0.23 0.82 0.65 0.31 0.27 0.54 0.10 0.04 0.05 0.76 0.08 0.03 0.03 0.03 0.03 0.03 0.06 0.04 0.19 1.60 1.08 1.07 0.88 0.65 1.00 1.57 1.03 0.65 0.15 0.10 0.08 0.17 0.86 0.77 0.39 0.86 1.29 1.21 0.47
0.59 0.43 0.72 0.59 0.34 0.16 0.11 0.31 0.63 0.84 0.75 0.10 0.07 0.34 0.35 0.08 0.04 0.04 0.02 0.01 0.00 0.00 0.00 0.00 0.01 0.01 0.01 0.01 0.01 0.04 0.03 0.02 0.00 0.04 0.01 0.01 0.02 0.07 0.74 0.40 0.08 0.08 0.09 0.19 0.09 0.34 0.50 0.53 0.19 0.33 0.19 0.12 0.06 0.03 0.04 0.23 0.10 0.33 0.19 0.08 0.03 0.04 0.03 0.14 0.29 1.05 1.67 1.45 1.02 0.45 0.55 0.82 0.82 0.17 0.07 0.05 0.09 0.29 0.87 0.84 0.37 0.31 1.20 1.19 0.35
0.26 0.24 0.22 0.20 0.10 0.09 0.06 0.08 0.27 0.94 0.87 0.35 0.03 0.05 0.04 0.05 0.02 0.03 0.02 0.01 0.01 0.01 0.00 0.01 0.00 0.01 0.03 0.03 0.03 0.04 0.04 0.01 0.01 0.02 0.03 0.02 0.03 0.52 0.11 0.10 0.18 0.28 0.11 0.10 0.28 0.26 0.51 0.15 0.03 0.12 0.15 0.06 0.05 0.04 0.05 0.12 0.09 0.06 0.05 0.07 0.07 0.07 0.04 0.17 1.45 1.33 1.11 1.34 0.73 0.38 0.23 0.59 0.52 0.25 0.14 0.10 0.12 0.51 1.22 0.77 0.34 0.69 1.46 1.66 0.95
0.04 0.03 0.05 0.05 0.04 0.09 0.09 0.17 0.31 0.22 0.13 0.37 0.50 0.03 0.01 0.01 0.01 0.01 0.02 0.01 0.01 0.01 0.00 0.00 0.02 0.00 0.03 0.02 0.02 0.02 0.07 0.12 0.04 0.03 0.03 0.03 0.04 0.49 0.22 0.19 0.16 0.23 0.30 0.20 0.21 0.21 0.22 0.19 0.26 0.06 0.09 0.09 0.05 0.09 0.13 0.12 0.07 0.04 0.10 0.11 0.11 0.09 0.16 1.40 2.10 1.68 1.51 1.07 0.89 0.54 0.22 0.43 0.31 0.12 0.10 0.10 0.11 0.22 0.44 0.43 0.34 0.94 1.87 2.43 1.75
0.01 0.00 0.00 0.01 0.01 0.02 0.02 0.21 0.26 0.03 0.05 0.06 0.35 0.04 0.01 0.01 0.01 0.01 0.00 0.00 0.00 0.02 0.00 0.04 0.02 0.01 0.02 0.07 0.04 0.07 0.11 0.31 0.22 0.14 0.03 0.04 0.03 0.20 0.23 0.25 0.11 0.16 0.23 0.12 0.16 0.11 0.12 0.11 0.06 0.01 0.01 0.04 0.06 0.08 0.10 0.09 0.11 0.11 0.15 0.20 0.19 0.23 0.60 1.61 1.27 0.92 1.35 1.90 1.16 0.51 0.46 0.39 0.24 0.15 0.14 0.16 0.23 0.34 0.22 0.23 0.39 1.24 2.34 2.35 0.81
0.00 0.00 0.00 0.00 0.00 0.00 0.03 0.10 0.04 0.02 0.03 0.08 0.08 0.03 0.02 0.02 0.00 0.01 0.01 0.02 0.03 0.08 0.14 0.05 0.07 0.20 0.05 0.06 0.26 0.25 0.30 0.17 0.40 0.08 0.09 0.03 0.06 0.10 0.35 0.41 0.23 0.38 0.08 0.15 0.18 0.10 0.05 0.05 0.06 0.07 0.03 0.04 0.08 0.11 0.15 0.17 0.15 0.18 0.22 0.40 0.65 0.64 1.27 2.09 3.41 3.72 3.12 2.44 1.60 0.89 0.73 0.47 0.15 0.15 0.18 0.17 0.21 0.16 0.16 0.13 0.55 1.12 1.63 1.10 0.68
0.01 0.00 0.00 0.00 0.00 0.01 0.01 0.01 0.01 0.01 0.02 0.05 0.13 0.09 0.01 0.00 0.01 0.02 0.05 0.07 0.09 0.09 0.18 0.53 0.20 0.16 0.30 0.48 0.46 0.52 0.26 0.33 0.33 0.03 0.05 0.07 0.07 0.23 0.64 0.57 0.32 0.20 0.28 0.23 0.14 0.04 0.04 0.04 0.05 0.09 0.02 0.03 0.07 0.11 0.17 0.20 0.24 0.78 0.46 0.31 0.44 1.02 2.75 2.24 3.18 2.53 1.99 3.25 2.82 1.64 1.05 0.46 0.28 0.22 0.19 0.14 0.12 0.12 0.14 0.33 0.80 1.26 0.81 0.53 0.74
0.00 0.00 0.00 0.00 0.00 0.01 0.00 0.00 0.00 0.02 0.02 0.13 0.37 0.37 0.25 0.27 0.48 0.30 0.13 0.08 0.20 0.49 0.57 0.88 0.47 0.63 0.85 0.98 0.71 1.54 1.99 0.97 0.27 0.09 0.04 0.02 0.02 0.03 0.21 0.29 0.04 0.11 0.08 0.15 0.01 0.03 0.11 0.06 0.04 0.01 0.01 0.02 0.05 0.11 0.23 0.24 1.61 0.64 0.24 0.41 2.82 3.66 1.35 0.67 1.12 0.65 1.26 2.89 2.73 2.64 0.93 0.63 0.56 0.44 0.29 0.21 0.13 0.13 0.52 0.84 1.03 0.76 0.63 0.43 0.39
0.00 0.00 0.00 0.00 0.00 0.00 0.01 0.00 0.04 0.08 0.40 0.86 1.06 0.60 0.40 0.35 0.52 0.29 0.22 0.16 0.17 0.15 0.67 0.47 0.19 0.21 0.57 0.81 1.56 3.16 2.36 0.44 0.20 0.17 0.18 0.03 0.02 0.03 0.02 0.02 0.01 0.04 0.02 0.03 0.04 0.04 0.07 0.06 0.02 0.01 0.01 0.03 0.06 0.11 0.15 1.56 1.75 0.49 0.43 0.36 0.38 0.43 0.52 0.52 0.63 0.68 1.48 2.51 2.70 2.44 1.18 0.95 0.80 0.55 0.58 0.50 0.59 0.60 0.91 0.98 0.78 0.81 0.76 0.55 0.37
0.03 0.03 0.02 0.02 0.03 0.37 0.53 0.61 0.36 0.37 0.81 0.82 0.62 0.14 0.19 0.23 0.26 0.17 0.09 0.08 0.09 0.11 0.19 0.17 0.60 1.29 0.95 0.47 0.51 0.62 0.38 0.38 0.23 0.12 0.03 0.02 0.06 0.05 0.11 0.26 0.20 0.05 0.01 0.02 0.02 0.04 0.02 0.02 0.04 0.06 0.11 0.31 0.23 0.26 0.24 0.62 0.73 0.35 0.33 0.35 0.45 1.55 0.81 0.49 0.50 0.86 1.49 2.03 2.45 1.88 1.10 1.04 1.46 1.52 1.04 1.02 1.07 1.15 1.12 0.63 0.40 0.38 0.45 0.57 0.47
0.11 0.13 0.08 0.18 0.28 0.29 0.09 0.13 0.32 0.43 0.18 0.08 0.03 0.06 0.08 0.13 0.12 0.09 0.04 0.04 0.08 0.17 0.20 0.33 0.62 0.95 0.93 0.49 0.70 0.51 0.48 0.37 0.33 0.21 0.07 0.11 0.21 0.09 0.04 0.01 0.01 0.02 0.02 0.03 0.04 0.02 0.02 0.04 0.05 0.05 0.04 0.03 0.10 0.44 0.20 0.15 0.24 0.30 0.34 0.44 0.51 0.50 0.48 0.62 0.54 0.80 1.41 1.97 1.70 1.99 1.59 1.19 1.21 1.21 1.68 2.06 1.99 1.16 0.90 0.66 0.74 0.66 0.51 0.51 0.48
0.57 0.35 0.34 0.27 0.23 0.17 0.20 0.18 0.16 0.09 0.03 0.03 0.07 0.14 0.25 0.04 0.02 0.04 0.03 0.09 0.15 0.20 0.11 0.36 0.34 0.39 0.53 0.61 0.51 0.46 0.76 0.41 0.23 0.10 0.15 0.11 0.08 0.04 0.04 0.08 0.05 0.06 0.08 0.11 0.07 0.05 0.07 0.04 0.04 0.04 0.04 0.05 0.12 0.08 0.07 0.10 0.13 0.12 0.23 0.41 0.44 0.43 0.49 0.52 0.72 1.24 1.54 2.03 1.91 2.10 1.44 1.18 1.02 1.22 1.10 1.73 1.77 1.76 1.43 1.69 1.21 0.72 0.55 0.45 0.55
0.71 0.29 0.33 0.36 0.30 0.22 0.25 0.08 0.04 0.06 0.08 0.10 0.10 0.08 0.04 0.03 0.03 0.03 0.07 0.19 0.24 0.24 0.30 0.30 0.49 0.35 0.33 0.52 0.57 0.40 0.31 0.30 0.05 0.07 0.06 0.05 0.02 0.03 0.05 0.03 0.06 0.06 0.05 0.04 0.07 0.08 0.05 0.03 0.08 0.27 0.33 0.49 0.07 0.06 0.08 0.12 0.12 0.12 0.17 0.30 0.42 0.39 0.40 0.67 1.08 1.12 1.08 1.52 1.84 1.68 1.25 0.91 0.69 1.02 1.58 1.69 1.83 2.33 1.90 1.69 1.09 0.78 0.72 1.19 1.72
1.26 0.60 0.31 0.52 0.64 0.76 0.53 0.29 0.36 0.26 0.15 0.09 0.05 0.06 0.10 0.10 0.08 0.05 0.12 0.05 0.15 0.11 0.16 0.27 0.83 0.52 0.48 0.76 0.69 0.13 0.15 0.04 0.06 0.03 0.06 0.04 0.05 0.10 0.07 0.05 0.03 0.02 0.02 0.02 0.06 0.29 0.38 0.81 0.94 0.91 0.74 0.44 0.08 0.04 0.03 0.06 0.10 0.09 0.22 0.16 0.32 0.42 0.42 0.62 0.80 0.90 0.97 1.40 1.07 1.10 1.56 1.46 1.40 1.36 1.26 1.41 1.96 2.14 1.72 1.87 1.66 1.50 1.98 1.63 1.75
2.10 2.45 2.61 2.14 1.89 1.37 0.95 0.81 0.78 0.81 0.88 0.36 0.20 0.11 0.12 0.26 0.14 0.38 0.53 0.29 0.35 0.43 0.50 0.53 0.24 0.20 0.33 0.26 0.07 0.20 0.09 0.06 0.04 0.05 0.02 0.04 0.05 0.04 0.04 0.01 0.02 0.02 0.01 0.12 0.56 0.72 0.97 1.16 1.07 1.25 0.42 0.25 0.18 0.15 0.03 0.27 0.03 0.08 0.07 0.12 0.19 0.34 0.41 0.36 0.54 0.82 0.85 0.80 0.75 0.76 0.95 1.18 1.09 1.11 1.15 1.37 1.46 1.75 2.24 2.05 1.99 1.80 2.24 1.61 1.42
1.90 2.07 2.35 2.17 2.08 1.81 1.87 1.98 2.13 1.81 1.52 1.81 1.03 0.83 0.79 0.94 1.03 1.02 1.46 1.12 0.90 0.73 0.90 0.82 0.86 0.83 0.86 0.80 0.70 0.14 0.08 0.04 0.07 0.04 0.07 0.06 0.03 0.11 0.11 0.02 0.25 0.33 0.61 0.98 0.83 0.97 0.87 1.05 1.30 0.83 0.65 0.40 0.21 0.10 0.08 0.06 0.07 0.07 0.08 0.11 0.18 0.27 0.31 0.31 0.38 0.40 0.63 0.78 1.21 1.04 1.13 1.36 1.77 1.67 1.21 1.11 1.18 1.79 1.72 1.84 1.75 1.70 1.68 1.75 1.75
1.39 1.37 1.12 1.33 1.48 1.40 1.59 1.52 1.33 1.60 1.66 1.30 1.01 0.68 0.49 0.45 0.94 0.76 0.85 0.92 0.97 0.83 0.93 0.88 0.96 0.80 0.96 1.04 0.99 0.67 0.91 1.02 1.21 0.83 0.64 0.63 1.11 1.20 1.16 0.92 0.69 0.58 0.54 0.73 0.76 1.21 1.27 1.16 0.80 0.50 0.29 0.10 0.21 0.08 0.09 0.06 0.05 0.08 0.07 0.09 0.15 0.19 0.18 0.25 0.28 0.32 0.32 0.42 0.81 1.17 1.06 1.15 0.96 1.08 0.89 0.79 0.81 0.72 1.04 1.68 1.65 1.80 1.69 1.60 1.98
1.74 1.52 1.36 1.15 0.96 1.22 1.10 1.23 1.23 1.24 1.22 1.24 1.15 1.11 1.06 0.89 0.47 0.38 0.69 0.68 0.45 0.24 0.53 0.97 0.71 0.92 0.98 0.98 1.80 1.65 1.12 0.98 1.29 1.31 1.47 1.05 0.91 0.84 1.39 1.45 1.13 0.88 1.01 1.60 1.88 2.06 1.70 1.67 1.54 0.95 0.82 0.69 0.53 0.58 0.71 0.72 0.71 0.36 0.24 0.28 0.20 0.21 0.21 0.24 0.40 0.54 0.73 1.01 0.91 0.74 0.67 0.81 0.84 0.93 1.06 0.94 0.67 0.64 0.69 1.04 1.30 1.83 2.14 2.29 2.06
0.72 0.89 1.04 1.07 1.21 0.69 0.70 1.05 1.23 1.12 1.42 1.68 1.47 1.31 1.23 1.07 1.02 0.74 0.30 0.42 0.33 0.28 0.63 0.87 1.16 0.96 0.68 0.60 0.88 0.93 0.82 0.78 1.04 1.02 0.99 1.16 1.27 1.16 1.52 1.39 1.64 1.55 1.29 1.57 1.82 1.79 1.05 0.74 0.43 0.31 0.31 0.39 0.29 0.37 0.42 0.35 0.31 0.20 0.17 0.22 0.30 0.24 0.27 0.42 0.56 0.76 0.60 0.52 0.43 0.35 0.41 0.51 0.64 0.76 0.83 1.00 1.05 0.93 1.01 1.03 1.22 1.48 1.97 1.86 1.67
0.41 0.57 0.64 0.68 0.83 0.99 1.15 1.65 1.94 1.99 2.09 2.40 2.51 2.82 2.90 2.52 2.08 1.75 1.66 1.01 0.86 0.58 0.94 1.15 1.45 0.77 0.81 0.91 0.82 1.14 1.20 0.90 1.01 0.85 0.66 0.95 0.65 0.64 0.53 1.46 2.71 3.64 3.24 2.11 1.38 0.98 0.83 0.64 0.42 0.34 0.18 0.19 0.18 0.35 0.29 0.21 0.24 0.38 0.35 0.26 0.14 0.17 0.28 0.38 0.42 0.35 0.30 0.25 0.31 0.41 0.49 0.61 0.73 0.94 1.17 1.19 1.30 1.16 1.29 1.19 1.00 1.09 1.53 1.80 1.97
0.30 0.24 0.28 0.36 0.54 0.60 1.04 1.35 1.20 1.03 1.24 1.53 1.70 1.88 1.85 2.44 2.87 2.90 2.51 2.66 2.30 1.82 1.43 2.23 1.56 1.13 1.65 1.36 0.95 0.74 0.69 1.06 0.89 0.95 0.72 0.72 0.96 1.01 1.28 1.17 1.06 1.13 1.01 1.02 1.06 0.62 0.40 0.36 0.41 0.34 0.42 0.33 0.35 0.35 0.30 0.21 0.29 0.31 0.31 0.21 0.36 0.45 0.39 0.30 0.24 0.25 0.25 0.39 0.64 0.60 0.69 0.65 0.54 0.65 0.70 0.69 0.82 0.91 0.93 0.87 0.85 1.10 1.40 1.76 2.29
0.31 0.34 0.44 0.45 0.36 0.25 0.37 0.56 0.94 1.97 2.32 2.37 1.93 1.53 1.54 1.52 1.48 1.54 1.79 2.13 2.33 2.69 3.19 1.50 1.74 1.98 1.13 1.49 1.48 1.65 1.24 1.03 0.83 0.65 0.97 0.93 0.93 2.21 3.07 1.83 1.56 1.16 1.23 0.97 0.92 1.09 0.81 1.03 1.12 0.69 0.50 0.61 0.59 0.35 0.45 0.67 0.84 1.02 1.32 1.66 1.34 1.28 0.83 0.90 0.91 0.86 0.74 0.82 0.89 0.81 0.64 0.43 0.53 0.56 0.51 0.64 0.86 0.93 1.02 1.08 1.37 1.56 1.35 1.59 1.93
0.17 0.31 0.28 0.36 0.58 0.43 0.44 0.47 0.40 0.49 0.55 0.68 0.73 0.77 0.88 1.13 1.35 1.40 1.61 2.62 3.29 2.94 2.78 2.60 1.80 1.41 1.88 1.17 0.76 1.48 1.34 1.33 1.30 1.55 1.90 2.33 2.29 2.23 1.97 1.65 1.32 1.15 1.11 1.28 1.59 1.83 1.32 1.20 1.46 1.65 1.50 1.63 1.72 1.40 1.48 1.47 1.49 1.70 1.44 1.30 1.40 1.39 1.22 1.16 1.09 1.50 1.26 1.13 1.04 0.93 1.01 1.35 1.08 0.92 0.81 0.74 1.09 1.24 1.10 1.28 1.04 1.18 1.28 1.38 1.80
0.09 0.06 0.10 0.15 0.24 0.39 0.53 0.39 0.42 0.46 0.47 0.45 0.45 0.51 0.57 0.67 0.84 0.91 1.27 2.73 1.46 1.92 2.80 2.98 2.65 2.00 1.99 2.83 1.65 0.94 1.88 2.39 2.31 2.69 2.68 1.83 2.03 1.97 1.57 1.32 1.24 1.19 1.34 1.34 1.37 1.43 1.34 1.31 1.29 1.41 1.28 1.24 1.19 1.22 1.66 1.45 1.34 1.20 1.35 1.51 1.21 1.04 1.10 1.39 1.34 1.12 1.00 1.04 0.99 1.09 0.98 0.92 1.03 0.96 1.04 0.87 0.84 0.79 0.93 0.97 1.11 0.98 1.04 1.13 1.13
0.22 0.15 0.07 0.04 0.06 0.09 0.12 0.23 0.17 0.22 0.31 0.34 0.37 0.40 0.50 0.63 0.69 0.84 1.70 1.03 1.08 1.16 1.34 1.36 2.53 2.29 2.30 2.77 2.98 1.53 1.61 2.89 2.74 1.82 1.65 1.21 1.51 1.76 1.22 1.06 1.23 1.01 0.97 1.24 1.13 0.93 0.98 1.40 1.32 1.10 1.04 1.43 1.46 1.02 0.70 1.15 1.48 1.57 1.23 0.96 0.94 1.16 1.27 1.15 0.83 0.87 0.91 1.26 1.03 0.75 0.77 0.86 1.22 1.50 1.77 1.50 1.11 0.85 0.73 0.94 1.22 1.06 0.90 0.84 0.96
0.15 0.10 0.03 0.01 0.03 0.07 0.09 0.10 0.11 0.12 0.11 0.14 0.18 0.23 0.27 0.54 0.84 0.56 0.46 0.49 0.97 1.68 1.97 1.90 1.37 1.18 1.12 1.18 1.22 1.08 0.91 1.19 1.75 2.14 2.64 2.43 1.42 1.54 2.48 1.64 0.74 1.49 1.43 0.95 0.78 0.81 0.70 0.71 0.98 1.53 1.72 1.09 0.90 1.41 1.67 1.15 0.81 1.00 1.47 1.78 1.59 1.16 1.06 1.18 1.68 1.83 1.38 1.01 1.12 1.54 1.50 1.15 0.96 0.99 1.07 1.61 2.15 2.31 2.20 1.57 1.21 1.16 1.36 1.55 1.82
0.12 0.09 0.07 0.05 0.04 0.06 0.09 0.11 0.11 0.13 0.25 0.45 0.20 0.16 0.19 0.23 0.43 0.34 0.41 0.44 0.43 0.69 0.67 0.60 0.86 0.92 0.97 1.08 1.94 1.71 1.66 1.69 1.70 1.56 1.61 1.47 1.41 1.20 1.70 2.41 1.41 0.96 1.31 1.65 1.28 0.88 0.99 1.01 1.04 1.06 1.12 1.35 1.12 0.86 0.86 1.27 1.66 1.41 1.05 1.09 1.39 1.91 2.14 1.33 1.09 1.32 1.55 2.10 2.21 1.57 1.48 1.83 2.02 1.82 1.70 1.25 1.21 1.50 1.92 2.39 2.78 2.41 1.90 1.56 1.78
0.23 0.32 0.21 0.07 0.14 0.07 0.12 0.16 0.08 0.14 0.21 0.29 0.48 0.39 0.31 0.24 0.24 0.30 0.93 1.58 1.69 1.12 0.99 0.62 0.41 0.49 0.53 0.54 0.64 0.72 0.74 0.73 0.77 0.96 1.02 1.15 1.02 0.95 1.14 1.30 1.25 1.08 1.36 1.80 2.25 2.17 1.66 1.69 1.85 1.73 1.49 1.50 1.82 1.76 1.16 0.95 1.11 1.67 1.94 1.89 1.59 1.54 1.92 2.44 1.80 1.51 1.75 1.65 1.63 2.28 2.45 2.02 1.69 2.07 2.41 2.60 2.38 1.61 1.30 1.34 1.42 1.79 2.08 1.85 1.61
0.28 0.63 0.33 0.11 0.15 0.12 0.18 0.18 0.28 0.24 0.30 0.41 0.63 1.65 1.49 0.76 0.67 0.42 0.35 0.17 0.28 0.37 0.24 0.21 0.20 0.20 0.29 0.41 0.40 0.45 0.49 0.55 0.55 0.58 0.65 0.59 0.76 0.89 1.00 1.12 1.14 1.01 0.91 0.91 1.18 1.33 1.26 1.32 1.51 1.59 1.72 1.74 1.76 2.08 2.10 1.77 1.43 1.43 1.60 1.89 1.99 1.78 1.64 2.00 2.39 2.30 1.95 2.01 2.01 1.75 1.80 2.02 1.80 1.48 1.35 1.49 1.55 1.63 1.54 1.23 0.97 0.96 1.07 1.25 1.23
0.47 0.65 0.52 0.31 0.32 0.25 0.26 0.18 0.11 0.13 0.21 0.56 0.63 0.59 0.73 1.47 1.02 0.55 0.48 0.36 0.19 0.14 0.15 0.27 0.13 0.20 0.12 0.14 0.12 0.16 0.29 0.24 0.33 0.36 0.51 0.50 0.47 0.52 0.58 0.73 0.91 0.94 0.93 0.92 0.91 1.06 1.09 1.03 0.90 0.85 0.94 1.00 0.96 0.96 1.04 1.05 1.21 1.35 1.08 1.05 1.09 1.44 1.51 1.52 1.54 1.38 1.33 1.23 1.15 1.07 1.10 1.18 1.25 1.15 1.11 1.02 1.16 1.24 1.37 1.37 1.22 1.03 0.95 0.98 1.05
0.25 0.26 0.54 0.36 0.55 0.49 0.18 0.23 0.52 0.64 0.48 0.11 0.15 0.36 0.22 0.37 0.37 0.60 0.45 0.23 0.14 0.10 0.06 0.09 0.11 0.17 0.15 0.38 0.13 0.24 0.21 0.23 0.23 0.28 0.31 0.38 0.37 0.33 0.28 0.31 0.55 0.54 0.67 0.82 0.84 0.69 0.73 0.75 0.87 0.88 0.86 0.84 0.92 0.98 0.98 0.97 1.04 1.02 0.91 0.87 0.88 0.95 1.13 1.15 1.08 1.09 1.13 1.12 1.08 1.01 0.97 0.91 0.89 0.94 1.04 1.11 1.14 1.09 1.07 1.09 1.11 1.07 0.96 0.90 0.86
0.20 0.27 0.41 0.27 0.18 0.41 0.86 1.02 1.16 0.58 0.39 0.48 0.30 0.37 0.39 0.37 0.24 0.24 0.28 0.44 0.55 0.31 0.11 0.09 0.09 0.16 0.18 0.36 0.62 0.53 0.43 0.33 0.25 0.24 0.34 0.31 0.40 0.62 0.80 0.44 0.38 0.26 0.53 0.36 0.44 0.53 0.47 0.51 0.46 0.46 0.51 0.54 0.56 0.59 0.63 0.69 0.74 0.75 0.79 0.76 0.69 0.63 0.63 0.66 0.66 0.67 0.67 0.63 0.61 0.60 0.60 0.58 0.57 0.57 0.53 0.52 0.52 0.55 0.56 0.54 0.52 0.53 0.55 0.55 0.55
0.45 0.13 0.23 0.17 0.56 1.04 0.93 0.61 0.58 0.58 0.84 0.91 0.71 0.74 0.75 0.35 0.31 0.70 0.49 0.66 0.74 0.61 0.49 0.25 0.20 0.19 0.20 0.34 0.53 0.52 0.61 0.54 0.50 0.45 0.34 0.19 0.29 0.32 0.50 0.30 0.32 0.43 0.60 0.30 0.31 0.36 0.42 0.28 0.24 0.24 0.28 0.25 0.26 0.28 0.29 0.31 0.31 0.32 0.34 0.33 0.33 0.32 0.30 0.28 0.25 0.21 0.19 0.18 0.18 0.19 0.20 0.21 0.21 0.22 0.22 0.22 0.21 0.21 0.21 0.21 0.21 0.20 0.20 0.21 0.22
0.54 0.28 0.16 0.13 0.32 0.45 0.55 0.39 0.33 0.35 0.73 0.91 0.86 0.67 0.69 0.58 0.48 0.51 0.33 0.65 0.70 0.76 0.69 0.51 0.36 0.26 0.19 0.42 0.54 0.57 0.58 0.47 0.52 0.55 0.39 0.31 0.33 0.28 0.50 0.56 0.31 0.38 0.35 0.31 0.29 0.27 0.29 0.18 0.10 0.08 0.08 0.08 0.06 0.08 0.08 0.08 0.08 0.08 0.07 0.07 0.07 0.07 0.07 0.06 0.05 0.04 0.03 0.02 0.02 0.02 0.02 0.02 0.02 0.02 0.03 0.03 0.03 0.03 0.04 0.04 0.04 0.04 0.04 0.04 0.05
0.99 1.05 1.13 0.91 0.78 0.71 0.42 0.50 0.47 0.52 0.42 0.48 0.53 0.69 0.85 0.87 0.77 0.84 0.73 0.64 0.74 0.72 0.88 0.96 0.58 0.45 0.47 0.50 0.29 0.34 0.43 0.52 0.39 0.33 0.31 0.24 0.21 0.26 0.24 0.24 0.18 0.32 0.43 0.28 0.24 0.24 0.18 0.16 0.16 0.19 0.08 0.04 0.01 0.01 0.02 0.02 0.01 0.01 0.01 0.02 0.01 0.02 0.02 0.01 0.01 0.01 0.01 0.00 0.00 0.00 0.00 0.00 0.00 0.00 0.00 0.00 0.00 0.00 0.00 0.01 0.01 0.01 0.01 0.01 0.01
0.74 0.81 0.75 0.65 0.82 0.88 0.84 0.79 0.70 0.55 0.51 0.54 0.59 0.53 0.70 0.74 0.71 0.79 0.88 0.74 0.93 0.90 0.78 0.96 0.84 0.75 0.58 0.50 0.40 0.47 0.76 0.66 0.43 0.34 0.47 0.30 0.21 0.23 0.18 0.13 0.12 0.17 0.16 0.19 0.21 0.19 0.13 0.18 0.32 0.31 0.18 0.02 0.00 0.00 0.00 0.01 0.05 0.02 0.01 0.01 0.00 0.00 0.00 0.00 0.01 0.01 0.00 0.00 0.00 0.00 0.00 0.00 0.00 0.00 0.00 0.00 0.00 0.00 0.00 0.00 0.00 0.00 0.00 0.00 0.00